When you browse on this site, cookies collect data to enhance your experience and personalize the content and advertising you see.
Visit our Privacy Policy to learn more. By continuing to use the site, you agree to this use of cookies and data.
  • En España
  • Lista de países
  • Para 7 días
  • Temperatura del agua
  • Mapa Satelital
  • El tiempo en el mapa
  • Informadores
  • user-avatar
    Iniciar sesión

    Tiempo cada hora Vysokiy Holm

    Hoy, 20 Julio, Sábado

    Tiempo Temperatura Precipitaciones Viento Presión Humedad
    00:00 +14°C° 0 mm 4 mps 743 mmHg 83%
    01:00 +13°C° 0 mm 4 mps 743 mmHg 85%
    02:00 +13°C° 0 mm 4 mps 743 mmHg 87%
    03:00 +12°C° 0 mm 4 mps 743 mmHg 88%
    04:00 +12°C° 0 mm 4 mps 743 mmHg 89%
    05:00 +12°C° 0 mm 4 mps 744 mmHg 90%
    06:00 +13°C° 0 mm 4 mps 744 mmHg 86%
    07:00 +15°C° 0 mm 4 mps 744 mmHg 82%
    08:00 +18°C° 0 mm 4 mps 744 mmHg 78%
    09:00 +19°C° 0 mm 4 mps 745 mmHg 74%
    10:00 +20°C° 0 mm 4 mps 745 mmHg 70%
    11:00 +21°C° 0 mm 4 mps 745 mmHg 66%
    12:00 +22°C° 0 mm 4 mps 745 mmHg 65%
    13:00 +22°C° 0 mm 4 mps 745 mmHg 63%
    14:00 +23°C° 0 mm 4 mps 745 mmHg 62%
    15:00 +22°C° 0 mm 4 mps 746 mmHg 64%
    16:00 +22°C° 0 mm 4 mps 746 mmHg 66%
    17:00 +22°C° 0 mm 3 mps 746 mmHg 68%
    18:00 +20°C° 0 mm 3 mps 746 mmHg 71%
    19:00 +18°C° 0 mm 3 mps 746 mmHg 74%
    20:00 +16°C° 0 mm 2 mps 746 mmHg 77%
    21:00 +15°C° 0 mm 2 mps 746 mmHg 77%
    22:00 +15°C° 0 mm 2 mps 746 mmHg 77%
    23:00 +14°C° 0 mm 2 mps 746 mmHg 78%

    Mañana, 21 Julio, Domingo

    Tiempo Temperatura Precipitaciones Viento Presión Humedad
    00:00 +13°C° 0 mm 2 mps 746 mmHg 80%
    01:00 +13°C° 0 mm 2 mps 746 mmHg 82%
    02:00 +13°C° 0 mm 2 mps 747 mmHg 84%
    03:00 +13°C° 0 mm 2 mps 747 mmHg 85%
    04:00 +13°C° 0 mm 2 mps 747 mmHg 86%
    05:00 +13°C° 0 mm 2 mps 747 mmHg 88%
    06:00 +15°C° 0 mm 2 mps 747 mmHg 84%
    07:00 +17°C° 0 mm 2 mps 747 mmHg 80%
    08:00 +19°C° 0 mm 2 mps 747 mmHg 75%
    09:00 +20°C° 0 mm 2 mps 747 mmHg 71%
    10:00 +21°C° 0 mm 2 mps 747 mmHg 68%
    11:00 +24°C° 0 mm 2 mps 747 mmHg 64%
    12:00 +24°C° 0 mm 2 mps 747 mmHg 62%
    13:00 +25°C° 0 mm 2 mps 747 mmHg 61%
    14:00 +25°C° 0 mm 3 mps 747 mmHg 59%
    15:00 +25°C° 0 mm 3 mps 747 mmHg 63%
    16:00 +25°C° 0 mm 2 mps 747 mmHg 66%
    17:00 +24°C° 0 mm 2 mps 747 mmHg 69%
    18:00 +23°C° 0 mm 2 mps 746 mmHg 74%
    19:00 +21°C° 0 mm 1 mps 746 mmHg 79%
    20:00 +17°C° 0 mm 0 mps 746 mmHg 83%
    21:00 +16°C° 0 mm 0 mps 746 mmHg 84%
    22:00 +16°C° 0 mm 0 mps 746 mmHg 85%
    23:00 +15°C° 0 mm 0 mps 746 mmHg 85%

    Pasado mañana, 22 Julio, Lunes

    Tiempo Temperatura Precipitaciones Viento Presión Humedad
    00:00 +16°C° 0 mm 1 mps 746 mmHg 86%
    01:00 +15°C° 0 mm 1 mps 746 mmHg 86%
    02:00 +15°C° 0 mm 1 mps 746 mmHg 87%
    03:00 +15°C° 0 mm 1 mps 746 mmHg 87%
    04:00 +15°C° 0 mm 1 mps 746 mmHg 87%
    05:00 +15°C° 0 mm 2 mps 746 mmHg 87%
    06:00 +17°C° 0 mm 2 mps 745 mmHg 84%
    07:00 +19°C° 0 mm 2 mps 745 mmHg 81%
    08:00 +20°C° 0 mm 2 mps 745 mmHg 77%
    09:00 +21°C° 0.7 mm 2 mps 745 mmHg 77%
    10:00 +22°C° 0.7 mm 3 mps 745 mmHg 78%
    11:00 +24°C° 0.7 mm 3 mps 745 mmHg 78%
    12:00 +21°C° 1.3 mm 2 mps 744 mmHg 83%
    13:00 +20°C° 1.3 mm 2 mps 744 mmHg 89%
    14:00 +20°C° 1.3 mm 1 mps 744 mmHg 94%
    15:00 +18°C° 0.4 mm 2 mps 744 mmHg 94%
    16:00 +18°C° 0.4 mm 2 mps 743 mmHg 94%
    17:00 +18°C° 0.4 mm 2 mps 743 mmHg 94%
    18:00 +18°C° 0 mm 2 mps 743 mmHg 94%
    19:00 +17°C° 0 mm 2 mps 743 mmHg 95%
    20:00 +16°C° 0 mm 2 mps 743 mmHg 96%
    21:00 +16°C° 0 mm 2 mps 743 mmHg 96%
    22:00 +16°C° 0 mm 2 mps 743 mmHg 97%
    23:00 +15°C° 0 mm 2 mps 743 mmHg 97%

    23 Julio, Martes

    Tiempo Temperatura Precipitaciones Viento Presión Humedad
    00:00 +15°C° 0.2 mm 2 mps 742 mmHg 97%
    01:00 +15°C° 0.2 mm 1 mps 742 mmHg 97%
    02:00 +15°C° 0.2 mm 1 mps 742 mmHg 98%
    03:00 +16°C° 0.3 mm 1 mps 742 mmHg 98%
    04:00 +16°C° 0.3 mm 1 mps 742 mmHg 98%
    05:00 +16°C° 0.3 mm 1 mps 742 mmHg 98%
    06:00 +16°C° 0.3 mm 1 mps 742 mmHg 97%
    07:00 +18°C° 0.3 mm 1 mps 742 mmHg 97%
    08:00 +18°C° 0.3 mm 1 mps 742 mmHg 96%
    09:00 +17°C° 0.2 mm 2 mps 742 mmHg 95%
    10:00 +18°C° 0.2 mm 2 mps 742 mmHg 93%
    11:00 +18°C° 0.2 mm 3 mps 742 mmHg 91%
    12:00 +18°C° 0.1 mm 3 mps 742 mmHg 91%
    13:00 +18°C° 0.1 mm 3 mps 742 mmHg 90%
    14:00 +18°C° 0.1 mm 4 mps 742 mmHg 90%
    15:00 +18°C° 0.1 mm 4 mps 742 mmHg 90%
    16:00 +18°C° 0.1 mm 4 mps 743 mmHg 90%
    17:00 +18°C° 0.1 mm 4 mps 743 mmHg 90%
    18:00 +17°C° 0 mm 4 mps 743 mmHg 91%
    19:00 +17°C° 0 mm 4 mps 743 mmHg 92%
    20:00 +16°C° 0 mm 3 mps 743 mmHg 93%
    21:00 +16°C° 0 mm 3 mps 743 mmHg 94%
    22:00 +16°C° 0 mm 3 mps 743 mmHg 94%
    23:00 +16°C° 0 mm 3 mps 743 mmHg 94%

    24 Julio, Miércoles

    Tiempo Temperatura Precipitaciones Viento Presión Humedad
    00:00 +16°C° 0 mm 3 mps 744 mmHg 94%
    01:00 +15°C° 0 mm 4 mps 744 mmHg 93%
    02:00 +15°C° 0 mm 4 mps 744 mmHg 92%
    03:00 +14°C° 0 mm 4 mps 744 mmHg 93%
    04:00 +14°C° 0 mm 3 mps 744 mmHg 93%
    05:00 +14°C° 0 mm 3 mps 744 mmHg 94%
    06:00 +16°C° 0 mm 3 mps 744 mmHg 89%
    07:00 +18°C° 0 mm 3 mps 744 mmHg 84%
    08:00 +19°C° 0 mm 3 mps 744 mmHg 80%
    09:00 +21°C° 0 mm 4 mps 745 mmHg 74%
    10:00 +22°C° 0 mm 4 mps 745 mmHg 69%
    11:00 +23°C° 0 mm 4 mps 745 mmHg 64%
    12:00 +25°C° 0 mm 4 mps 745 mmHg 62%
    13:00 +25°C° 0 mm 4 mps 745 mmHg 60%
    14:00 +26°C° 0 mm 4 mps 746 mmHg 59%
    15:00 +25°C° 0.1 mm 4 mps 746 mmHg 63%
    16:00 +25°C° 0.1 mm 3 mps 746 mmHg 67%
    17:00 +25°C° 0.1 mm 3 mps 746 mmHg 71%
    18:00 +22°C° 0 mm 3 mps 746 mmHg 75%
    19:00 +20°C° 0 mm 3 mps 746 mmHg 79%
    20:00 +19°C° 0 mm 2 mps 746 mmHg 83%
    21:00 +18°C° 0 mm 2 mps 746 mmHg 84%
    22:00 +17°C° 0 mm 2 mps 746 mmHg 85%
    23:00 +16°C° 0 mm 2 mps 746 mmHg 87%

    25 Julio, Jueves

    Tiempo Temperatura Precipitaciones Viento Presión Humedad
    00:00 +15°C° 0 mm 2 mps 746 mmHg 88%
    01:00 +15°C° 0 mm 2 mps 746 mmHg 89%
    02:00 +14°C° 0 mm 2 mps 746 mmHg 90%
    03:00 +14°C° 0 mm 2 mps 746 mmHg 91%
    04:00 +14°C° 0 mm 2 mps 746 mmHg 91%
    05:00 +13°C° 0 mm 3 mps 747 mmHg 91%
    06:00 +16°C° 0 mm 3 mps 747 mmHg 87%
    07:00 +18°C° 0 mm 3 mps 747 mmHg 83%
    08:00 +19°C° 0 mm 3 mps 747 mmHg 79%
    09:00 +21°C° 0 mm 3 mps 747 mmHg 73%
    10:00 +22°C° 0 mm 4 mps 747 mmHg 67%
    11:00 +25°C° 0 mm 4 mps 747 mmHg 61%
    12:00 +25°C° 0 mm 4 mps 747 mmHg 60%
    13:00 +26°C° 0 mm 4 mps 747 mmHg 58%
    14:00 +26°C° 0 mm 4 mps 747 mmHg 56%
    15:00 +26°C° 0 mm 3 mps 747 mmHg 60%
    16:00 +26°C° 0 mm 3 mps 747 mmHg 64%
    17:00 +26°C° 0 mm 2 mps 747 mmHg 68%
    18:00 +25°C° 0 mm 2 mps 747 mmHg 73%
    19:00 +23°C° 0 mm 2 mps 747 mmHg 77%
    20:00 +20°C° 0 mm 2 mps 747 mmHg 81%
    21:00 +19°C° 0 mm 2 mps 747 mmHg 84%
    22:00 +18°C° 0 mm 2 mps 747 mmHg 87%
    23:00 +17°C° 0 mm 2 mps 747 mmHg 90%
    Mostrar más